owner,sensor,date,latitude,longitude,air_pressure(mBar),qcFlag 
WAVCIS,ioos:station:WAVCIS:CSI15:1,2008-05-01T00:00:00Z,28.8332,-90.8320,1012.01,11111222 
WAVCIS,ioos:station:WAVCIS:CSI15:1,2008-05-01T01:00:00Z,28.8332,-90.8320,1011.85,11111222 
WAVCIS,ioos:station:WAVCIS:CSI15:1,2008-05-01T02:00:00Z,28.8332,-90.8320,1012.05,11111222 
WAVCIS,ioos:station:WAVCIS:CSI15:1,2008-05-01T03:00:00Z,28.8332,-90.8320,1012.06,11111222 
WAVCIS,ioos:station:WAVCIS:CSI15:1,2008-05-01T04:00:00Z,28.8332,-90.8320,1011.98,11111222 
WAVCIS,ioos:station:WAVCIS:CSI15:1,2008-05-01T05:00:00Z,28.8332,-90.8320,1011.8,11111222 
WAVCIS,ioos:station:WAVCIS:CSI15:1,2008-05-01T06:00:00Z,28.8332,-90.8320,1011.04,11111222 
WAVCIS,ioos:station:WAVCIS:CSI15:1,2008-05-01T07:00:00Z,28.8332,-90.8320,1010.11,11111222 
WAVCIS,ioos:station:WAVCIS:CSI15:1,2008-05-01T08:00:00Z,28.8332,-90.8320,1009.11,11111222 
WAVCIS,ioos:station:WAVCIS:CSI15:1,2008-05-01T09:00:00Z,28.8332,-90.8320,1008.94,11111222 
WAVCIS,ioos:station:WAVCIS:CSI15:1,2008-05-01T10:00:00Z,28.8332,-90.8320,1008.89,11111222 
WAVCIS,ioos:station:WAVCIS:CSI15:1,2008-05-01T11:00:00Z,28.8332,-90.8320,1009.32,11111222 
WAVCIS,ioos:station:WAVCIS:CSI15:1,2008-05-01T12:00:00Z,28.8332,-90.8320,1009.75,11111222 
WAVCIS,ioos:station:WAVCIS:CSI15:1,2008-05-01T13:00:00Z,28.8332,-90.8320,1010.23,11111222 
WAVCIS,ioos:station:WAVCIS:CSI15:1,2008-05-01T14:00:00Z,28.8332,-90.8320,1010.65,11111222 
WAVCIS,ioos:station:WAVCIS:CSI15:1,2008-05-01T15:00:00Z,28.8332,-90.8320,1011.05,11111222 
WAVCIS,ioos:station:WAVCIS:CSI15:1,2008-05-01T16:00:00Z,28.8332,-90.8320,1011.11,11111222 
WAVCIS,ioos:station:WAVCIS:CSI15:1,2008-05-01T17:00:00Z,28.8332,-90.8320,1010.96,11111222 
WAVCIS,ioos:station:WAVCIS:CSI15:1,2008-05-01T18:00:00Z,28.8332,-90.8320,1010.5,11111222 
WAVCIS,ioos:station:WAVCIS:CSI15:1,2008-05-01T19:00:00Z,28.8332,-90.8320,1009.78,11111222 
WAVCIS,ioos:station:WAVCIS:CSI15:1,2008-05-01T20:00:00Z,28.8332,-90.8320,1009.23,11111222 
WAVCIS,ioos:station:WAVCIS:CSI15:1,2008-05-01T21:00:00Z,28.8332,-90.8320,1008.71,11111222 
WAVCIS,ioos:station:WAVCIS:CSI15:1,2008-05-01T22:00:00Z,28.8332,-90.8320,1008.33,11111222 
WAVCIS,ioos:station:WAVCIS:CSI15:1,2008-05-01T23:00:00Z,28.8332,-90.8320,1008.25,11111222 
WAVCIS,ioos:station:WAVCIS:CSI15:1,2008-05-02T00:00:00Z,28.8332,-90.8320,1008.12,11111222 
WAVCIS,ioos:station:WAVCIS:CSI15:1,2008-05-02T01:00:00Z,28.8332,-90.8320,1007.84,11111222 
WAVCIS,ioos:station:WAVCIS:CSI15:1,2008-05-02T02:00:00Z,28.8332,-90.8320,1008.25,11111222 
WAVCIS,ioos:station:WAVCIS:CSI15:1,2008-05-02T03:00:00Z,28.8332,-90.8320,1007.63,11111222 
WAVCIS,ioos:station:WAVCIS:CSI15:1,2008-05-02T04:00:00Z,28.8332,-90.8320,1007.6,11111222 
WAVCIS,ioos:station:WAVCIS:CSI15:1,2008-05-02T05:00:00Z,28.8332,-90.8320,1007.45,11111222 
WAVCIS,ioos:station:WAVCIS:CSI15:1,2008-05-02T06:00:00Z,28.8332,-90.8320,1007.087,11111222 
WAVCIS,ioos:station:WAVCIS:CSI15:1,2008-05-02T08:00:00Z,28.8332,-90.8320,1006.391,11111222 
WAVCIS,ioos:station:WAVCIS:CSI15:1,2008-05-02T09:00:00Z,28.8332,-90.8320,1006.491,11111222 
WAVCIS,ioos:station:WAVCIS:CSI15:1,2008-05-02T10:00:00Z,28.8332,-90.8320,1006.244,11111222 
WAVCIS,ioos:station:WAVCIS:CSI15:1,2008-05-02T11:00:00Z,28.8332,-90.8320,1006.562,11111222 
WAVCIS,ioos:station:WAVCIS:CSI15:1,2008-05-02T12:00:00Z,28.8332,-90.8320,1007.48,11111222 
WAVCIS,ioos:station:WAVCIS:CSI15:1,2008-05-02T13:00:00Z,28.8332,-90.8320,1008.08,11111222 
WAVCIS,ioos:station:WAVCIS:CSI15:1,2008-05-02T14:00:00Z,28.8332,-90.8320,1008.46,11111222 
WAVCIS,ioos:station:WAVCIS:CSI15:1,2008-05-02T15:00:00Z,28.8332,-90.8320,1008.58,11111222 
WAVCIS,ioos:station:WAVCIS:CSI15:1,2008-05-02T16:00:00Z,28.8332,-90.8320,1008.74,11111222 
WAVCIS,ioos:station:WAVCIS:CSI15:1,2008-05-02T17:00:00Z,28.8332,-90.8320,1008.51,11111222 
WAVCIS,ioos:station:WAVCIS:CSI15:1,2008-05-02T18:00:00Z,28.8332,-90.8320,1008.18,11111222 
WAVCIS,ioos:station:WAVCIS:CSI15:1,2008-05-02T19:00:00Z,28.8332,-90.8320,1008.08,11111222 
WAVCIS,ioos:station:WAVCIS:CSI15:1,2008-05-02T20:00:00Z,28.8332,-90.8320,1007.76,11111222 
WAVCIS,ioos:station:WAVCIS:CSI15:1,2008-05-02T21:00:00Z,28.8332,-90.8320,1007.43,11111222 
WAVCIS,ioos:station:WAVCIS:CSI15:1,2008-05-02T22:00:00Z,28.8332,-90.8320,1007.36,11111222 
WAVCIS,ioos:station:WAVCIS:CSI15:1,2008-05-02T23:00:00Z,28.8332,-90.8320,1007.13,11111222 
WAVCIS,ioos:station:WAVCIS:CSI15:1,2008-05-03T00:00:00Z,28.8332,-90.8320,1006.881,11111222 
WAVCIS,ioos:station:WAVCIS:CSI15:1,2008-05-03T01:00:00Z,28.8332,-90.8320,1007.39,11111222 
WAVCIS,ioos:station:WAVCIS:CSI15:1,2008-05-03T02:00:00Z,28.8332,-90.8320,1007.86,11111222 
WAVCIS,ioos:station:WAVCIS:CSI15:1,2008-05-03T03:00:00Z,28.8332,-90.8320,1008.36,11111222 
WAVCIS,ioos:station:WAVCIS:CSI15:1,2008-05-03T04:00:00Z,28.8332,-90.8320,1008.74,11111222 
WAVCIS,ioos:station:WAVCIS:CSI15:1,2008-05-03T06:00:00Z,28.8332,-90.8320,1008.67,11111222 
WAVCIS,ioos:station:WAVCIS:CSI15:1,2008-05-03T08:00:00Z,28.8332,-90.8320,1007.16,11111222 
WAVCIS,ioos:station:WAVCIS:CSI15:1,2008-05-03T09:00:00Z,28.8332,-90.8320,1007.01,11111222 
WAVCIS,ioos:station:WAVCIS:CSI15:1,2008-05-03T10:00:00Z,28.8332,-90.8320,1007.46,11111222 
WAVCIS,ioos:station:WAVCIS:CSI15:1,2008-05-03T11:00:00Z,28.8332,-90.8320,1008.6,11111222 
WAVCIS,ioos:station:WAVCIS:CSI15:1,2008-05-03T12:00:00Z,28.8332,-90.8320,1009.47,11111222 
WAVCIS,ioos:station:WAVCIS:CSI15:1,2008-05-03T13:00:00Z,28.8332,-90.8320,1009.94,11111222 
WAVCIS,ioos:station:WAVCIS:CSI15:1,2008-05-03T14:00:00Z,28.8332,-90.8320,1009.95,11111222 
WAVCIS,ioos:station:WAVCIS:CSI15:1,2008-05-03T15:00:00Z,28.8332,-90.8320,1010.82,11111222 
WAVCIS,ioos:station:WAVCIS:CSI15:1,2008-05-03T16:00:00Z,28.8332,-90.8320,1011.16,11111222 
WAVCIS,ioos:station:WAVCIS:CSI15:1,2008-05-03T17:00:00Z,28.8332,-90.8320,1011.13,11111222 
WAVCIS,ioos:station:WAVCIS:CSI15:1,2008-05-03T18:00:00Z,28.8332,-90.8320,1010.2,11111222 
WAVCIS,ioos:station:WAVCIS:CSI15:1,2008-05-03T19:00:00Z,28.8332,-90.8320,1010.52,11111222 
WAVCIS,ioos:station:WAVCIS:CSI15:1,2008-05-03T20:00:00Z,28.8332,-90.8320,1010.54,11111222 
WAVCIS,ioos:station:WAVCIS:CSI15:1,2008-05-03T21:00:00Z,28.8332,-90.8320,1010.61,11111222 
WAVCIS,ioos:station:WAVCIS:CSI15:1,2008-05-03T23:00:00Z,28.8332,-90.8320,1010.31,11111222 
WAVCIS,ioos:station:WAVCIS:CSI15:1,2008-05-04T04:00:00Z,28.8332,-90.8320,1012.66,11111222 
WAVCIS,ioos:station:WAVCIS:CSI15:1,2008-05-04T05:00:00Z,28.8332,-90.8320,1012.8,11111222 
WAVCIS,ioos:station:WAVCIS:CSI15:1,2008-05-04T06:00:00Z,28.8332,-90.8320,1012.32,11111222 
WAVCIS,ioos:station:WAVCIS:CSI15:1,2008-05-04T07:00:00Z,28.8332,-90.8320,1012.03,11111222 
WAVCIS,ioos:station:WAVCIS:CSI15:1,2008-05-04T08:00:00Z,28.8332,-90.8320,1011.6,11111222 
WAVCIS,ioos:station:WAVCIS:CSI15:1,2008-05-04T09:00:00Z,28.8332,-90.8320,1011.56,11111222 
WAVCIS,ioos:station:WAVCIS:CSI15:1,2008-05-04T10:00:00Z,28.8332,-90.8320,1011.68,11111222 
WAVCIS,ioos:station:WAVCIS:CSI15:1,2008-05-04T11:00:00Z,28.8332,-90.8320,1012.12,11111222 
WAVCIS,ioos:station:WAVCIS:CSI15:1,2008-05-04T12:00:00Z,28.8332,-90.8320,1012.94,11111222 
WAVCIS,ioos:station:WAVCIS:CSI15:1,2008-05-04T13:00:00Z,28.8332,-90.8320,1013.78,11111222 
WAVCIS,ioos:station:WAVCIS:CSI15:1,2008-05-04T14:00:00Z,28.8332,-90.8320,1014.38,11111222 
WAVCIS,ioos:station:WAVCIS:CSI15:1,2008-05-04T15:00:00Z,28.8332,-90.8320,1015.21,11111222 
WAVCIS,ioos:station:WAVCIS:CSI15:1,2008-05-04T16:00:00Z,28.8332,-90.8320,1015.8,11111222 
WAVCIS,ioos:station:WAVCIS:CSI15:1,2008-05-04T17:00:00Z,28.8332,-90.8320,1016.02,11111222 
WAVCIS,ioos:station:WAVCIS:CSI15:1,2008-05-04T18:00:00Z,28.8332,-90.8320,1015.34,11111222 
WAVCIS,ioos:station:WAVCIS:CSI15:1,2008-05-04T19:00:00Z,28.8332,-90.8320,1015.22,11111222 
WAVCIS,ioos:station:WAVCIS:CSI15:1,2008-05-04T20:00:00Z,28.8332,-90.8320,1015.01,11111222 
WAVCIS,ioos:station:WAVCIS:CSI15:1,2008-05-04T21:00:00Z,28.8332,-90.8320,1014.41,11111222 
WAVCIS,ioos:station:WAVCIS:CSI15:1,2008-05-04T22:00:00Z,28.8332,-90.8320,1014.25,11111222 
WAVCIS,ioos:station:WAVCIS:CSI15:1,2008-05-04T23:00:00Z,28.8332,-90.8320,1014.09,11111222 
WAVCIS,ioos:station:WAVCIS:CSI15:1,2008-05-05T00:00:00Z,28.8332,-90.8320,1014.01,11111222 
WAVCIS,ioos:station:WAVCIS:CSI15:1,2008-05-05T01:00:00Z,28.8332,-90.8320,1014.12,11111222 
WAVCIS,ioos:station:WAVCIS:CSI15:1,2008-05-05T02:00:00Z,28.8332,-90.8320,1014.71,11111222 
WAVCIS,ioos:station:WAVCIS:CSI15:1,2008-05-05T03:00:00Z,28.8332,-90.8320,1014.97,11111222 
WAVCIS,ioos:station:WAVCIS:CSI15:1,2008-05-05T04:00:00Z,28.8332,-90.8320,1015.06,11111222 
WAVCIS,ioos:station:WAVCIS:CSI15:1,2008-05-05T05:00:00Z,28.8332,-90.8320,1015.15,11111222 
WAVCIS,ioos:station:WAVCIS:CSI15:1,2008-05-05T06:00:00Z,28.8332,-90.8320,1014.68,11111222 
WAVCIS,ioos:station:WAVCIS:CSI15:1,2008-05-05T07:00:00Z,28.8332,-90.8320,1014.14,11111222 
WAVCIS,ioos:station:WAVCIS:CSI15:1,2008-05-05T08:00:00Z,28.8332,-90.8320,1013.85,11111222 
WAVCIS,ioos:station:WAVCIS:CSI15:1,2008-05-05T09:00:00Z,28.8332,-90.8320,1013.83,11111222 
WAVCIS,ioos:station:WAVCIS:CSI15:1,2008-05-05T10:00:00Z,28.8332,-90.8320,1014.05,11111222 
WAVCIS,ioos:station:WAVCIS:CSI15:1,2008-05-05T11:00:00Z,28.8332,-90.8320,1014.3,11111222 
WAVCIS,ioos:station:WAVCIS:CSI15:1,2008-05-05T12:00:00Z,28.8332,-90.8320,1015.19,11111222 
WAVCIS,ioos:station:WAVCIS:CSI15:1,2008-05-05T13:00:00Z,28.8332,-90.8320,1015.65,11111222 
WAVCIS,ioos:station:WAVCIS:CSI15:1,2008-05-05T14:00:00Z,28.8332,-90.8320,1015.52,11111222 
WAVCIS,ioos:station:WAVCIS:CSI15:1,2008-05-05T15:00:00Z,28.8332,-90.8320,1015.86,11111222 
WAVCIS,ioos:station:WAVCIS:CSI15:1,2008-05-05T16:00:00Z,28.8332,-90.8320,1016.39,11111222 
WAVCIS,ioos:station:WAVCIS:CSI15:1,2008-05-05T17:00:00Z,28.8332,-90.8320,1016.8,11111222 
WAVCIS,ioos:station:WAVCIS:CSI15:1,2008-05-05T18:00:00Z,28.8332,-90.8320,1016.71,11111222 
WAVCIS,ioos:station:WAVCIS:CSI15:1,2008-05-05T19:00:00Z,28.8332,-90.8320,1016.24,11111222 
WAVCIS,ioos:station:WAVCIS:CSI15:1,2008-05-05T20:00:00Z,28.8332,-90.8320,1015.49,11111222 
WAVCIS,ioos:station:WAVCIS:CSI15:1,2008-05-05T21:00:00Z,28.8332,-90.8320,1015.12,11111222 
WAVCIS,ioos:station:WAVCIS:CSI15:1,2008-05-05T22:00:00Z,28.8332,-90.8320,1014.86,11111222 
WAVCIS,ioos:station:WAVCIS:CSI15:1,2008-05-05T23:00:00Z,28.8332,-90.8320,1014.93,11111222 
WAVCIS,ioos:station:WAVCIS:CSI15:1,2008-05-06T00:00:00Z,28.8332,-90.8320,1014.72,11111222 
WAVCIS,ioos:station:WAVCIS:CSI15:1,2008-05-06T01:00:00Z,28.8332,-90.8320,1015.07,11111222 
WAVCIS,ioos:station:WAVCIS:CSI15:1,2008-05-06T02:00:00Z,28.8332,-90.8320,1015.5,11111222 
WAVCIS,ioos:station:WAVCIS:CSI15:1,2008-05-06T03:00:00Z,28.8332,-90.8320,1015.3,11111222 
WAVCIS,ioos:station:WAVCIS:CSI15:1,2008-05-06T04:00:00Z,28.8332,-90.8320,1015.23,11111222 
WAVCIS,ioos:station:WAVCIS:CSI15:1,2008-05-06T05:00:00Z,28.8332,-90.8320,1015.61,11111222 
WAVCIS,ioos:station:WAVCIS:CSI15:1,2008-05-06T06:00:00Z,28.8332,-90.8320,1014.98,11111222 
WAVCIS,ioos:station:WAVCIS:CSI15:1,2008-05-06T07:00:00Z,28.8332,-90.8320,1014.04,11111222 
WAVCIS,ioos:station:WAVCIS:CSI15:1,2008-05-06T08:00:00Z,28.8332,-90.8320,1013.38,11111222 
WAVCIS,ioos:station:WAVCIS:CSI15:1,2008-05-06T09:00:00Z,28.8332,-90.8320,1012.9,11111222 
WAVCIS,ioos:station:WAVCIS:CSI15:1,2008-05-06T10:00:00Z,28.8332,-90.8320,1012.99,11111222 
WAVCIS,ioos:station:WAVCIS:CSI15:1,2008-05-06T11:00:00Z,28.8332,-90.8320,1013.5,11111222 
WAVCIS,ioos:station:WAVCIS:CSI15:1,2008-05-06T12:00:00Z,28.8332,-90.8320,1014.11,11111222 
WAVCIS,ioos:station:WAVCIS:CSI15:1,2008-05-06T13:00:00Z,28.8332,-90.8320,1014.2,11111222 
WAVCIS,ioos:station:WAVCIS:CSI15:1,2008-05-06T14:00:00Z,28.8332,-90.8320,1014.56,11111222 
WAVCIS,ioos:station:WAVCIS:CSI15:1,2008-05-06T15:00:00Z,28.8332,-90.8320,1015.1,11111222 
WAVCIS,ioos:station:WAVCIS:CSI15:1,2008-05-06T16:00:00Z,28.8332,-90.8320,1015.45,11111222 
WAVCIS,ioos:station:WAVCIS:CSI15:1,2008-05-06T17:00:00Z,28.8332,-90.8320,1015.49,11111222 
WAVCIS,ioos:station:WAVCIS:CSI15:1,2008-05-06T18:00:00Z,28.8332,-90.8320,1015.29,11111222 
WAVCIS,ioos:station:WAVCIS:CSI15:1,2008-05-06T19:00:00Z,28.8332,-90.8320,1015.26,11111222 
WAVCIS,ioos:station:WAVCIS:CSI15:1,2008-05-06T20:00:00Z,28.8332,-90.8320,1014.72,11111222 
WAVCIS,ioos:station:WAVCIS:CSI15:1,2008-05-06T21:00:00Z,28.8332,-90.8320,1013.57,11111222 
WAVCIS,ioos:station:WAVCIS:CSI15:1,2008-05-06T22:00:00Z,28.8332,-90.8320,1013.0,11111222 
WAVCIS,ioos:station:WAVCIS:CSI15:1,2008-05-06T23:00:00Z,28.8332,-90.8320,1012.11,11111222 
WAVCIS,ioos:station:WAVCIS:CSI15:1,2008-05-07T00:00:00Z,28.8332,-90.8320,1011.82,11111222 
WAVCIS,ioos:station:WAVCIS:CSI15:1,2008-05-07T01:00:00Z,28.8332,-90.8320,1011.21,11111222 
WAVCIS,ioos:station:WAVCIS:CSI15:1,2008-05-07T02:00:00Z,28.8332,-90.8320,1011.53,11111222 
WAVCIS,ioos:station:WAVCIS:CSI15:1,2008-05-07T03:00:00Z,28.8332,-90.8320,1012.02,11111222 
WAVCIS,ioos:station:WAVCIS:CSI15:1,2008-05-07T04:00:00Z,28.8332,-90.8320,1011.61,11111222 
WAVCIS,ioos:station:WAVCIS:CSI15:1,2008-05-07T05:00:00Z,28.8332,-90.8320,1011.32,11111222 
WAVCIS,ioos:station:WAVCIS:CSI15:1,2008-05-07T06:00:00Z,28.8332,-90.8320,1010.06,11111222 
WAVCIS,ioos:station:WAVCIS:CSI15:1,2008-05-07T07:00:00Z,28.8332,-90.8320,1010.18,11111222 
WAVCIS,ioos:station:WAVCIS:CSI15:1,2008-05-07T08:00:00Z,28.8332,-90.8320,1009.59,11111222 
WAVCIS,ioos:station:WAVCIS:CSI15:1,2008-05-07T09:00:00Z,28.8332,-90.8320,1008.8,11111222 
WAVCIS,ioos:station:WAVCIS:CSI15:1,2008-05-07T10:00:00Z,28.8332,-90.8320,1008.77,11111222 
WAVCIS,ioos:station:WAVCIS:CSI15:1,2008-05-07T11:00:00Z,28.8332,-90.8320,1008.59,11111222 
WAVCIS,ioos:station:WAVCIS:CSI15:1,2008-05-07T12:00:00Z,28.8332,-90.8320,1008.94,11111222 
WAVCIS,ioos:station:WAVCIS:CSI15:1,2008-05-07T13:00:00Z,28.8332,-90.8320,1009.23,11111222 
WAVCIS,ioos:station:WAVCIS:CSI15:1,2008-05-07T14:00:00Z,28.8332,-90.8320,1009.4,11111222 
WAVCIS,ioos:station:WAVCIS:CSI15:1,2008-05-07T16:00:00Z,28.8332,-90.8320,1008.83,11111222 
WAVCIS,ioos:station:WAVCIS:CSI15:1,2008-05-07T17:00:00Z,28.8332,-90.8320,1009.45,11111222 
WAVCIS,ioos:station:WAVCIS:CSI15:1,2008-05-07T18:00:00Z,28.8332,-90.8320,1009.26,11111222 
WAVCIS,ioos:station:WAVCIS:CSI15:1,2008-05-07T19:00:00Z,28.8332,-90.8320,1008.6,11111222 
WAVCIS,ioos:station:WAVCIS:CSI15:1,2008-05-07T20:00:00Z,28.8332,-90.8320,1008.14,11111222 
WAVCIS,ioos:station:WAVCIS:CSI15:1,2008-05-07T21:00:00Z,28.8332,-90.8320,1007.5,11111222 
WAVCIS,ioos:station:WAVCIS:CSI15:1,2008-05-07T22:00:00Z,28.8332,-90.8320,1007.14,11111222 
WAVCIS,ioos:station:WAVCIS:CSI15:1,2008-05-07T23:00:00Z,28.8332,-90.8320,1006.88,11111222 
WAVCIS,ioos:station:WAVCIS:CSI15:1,2008-05-08T00:00:00Z,28.8332,-90.8320,1006.143,11111222 
WAVCIS,ioos:station:WAVCIS:CSI15:1,2008-05-08T01:00:00Z,28.8332,-90.8320,1005.629,11111222 
WAVCIS,ioos:station:WAVCIS:CSI15:1,2008-05-08T02:00:00Z,28.8332,-90.8320,1005.812,11111222 
WAVCIS,ioos:station:WAVCIS:CSI15:1,2008-05-08T03:00:00Z,28.8332,-90.8320,1005.237,11111222 
WAVCIS,ioos:station:WAVCIS:CSI15:1,2008-05-08T04:00:00Z,28.8332,-90.8320,1005.855,11111222 
WAVCIS,ioos:station:WAVCIS:CSI15:1,2008-05-08T05:00:00Z,28.8332,-90.8320,1006.289,11111222 
WAVCIS,ioos:station:WAVCIS:CSI15:1,2008-05-08T06:00:00Z,28.8332,-90.8320,1006.574,11111222 
WAVCIS,ioos:station:WAVCIS:CSI15:1,2008-05-08T07:00:00Z,28.8332,-90.8320,1006.228,11111222 
WAVCIS,ioos:station:WAVCIS:CSI15:1,2008-05-08T08:00:00Z,28.8332,-90.8320,1005.792,11111222 
WAVCIS,ioos:station:WAVCIS:CSI15:1,2008-05-08T09:00:00Z,28.8332,-90.8320,1005.818,11111222 
WAVCIS,ioos:station:WAVCIS:CSI15:1,2008-05-08T10:00:00Z,28.8332,-90.8320,1005.486,11111222 
WAVCIS,ioos:station:WAVCIS:CSI15:1,2008-05-08T11:00:00Z,28.8332,-90.8320,1005.737,11111222 
WAVCIS,ioos:station:WAVCIS:CSI15:1,2008-05-08T12:00:00Z,28.8332,-90.8320,1005.788,11111222 
WAVCIS,ioos:station:WAVCIS:CSI15:1,2008-05-08T13:00:00Z,28.8332,-90.8320,1006.13,11111222 
WAVCIS,ioos:station:WAVCIS:CSI15:1,2008-05-08T14:00:00Z,28.8332,-90.8320,1006.07,11111222 
WAVCIS,ioos:station:WAVCIS:CSI15:1,2008-05-08T15:00:00Z,28.8332,-90.8320,1006.034,11111222 
WAVCIS,ioos:station:WAVCIS:CSI15:1,2008-05-08T16:00:00Z,28.8332,-90.8320,1006.2,11111222 
WAVCIS,ioos:station:WAVCIS:CSI15:1,2008-05-08T17:00:00Z,28.8332,-90.8320,1006.53,11111222 
WAVCIS,ioos:station:WAVCIS:CSI15:1,2008-05-08T18:00:00Z,28.8332,-90.8320,1006.622,11111222 
WAVCIS,ioos:station:WAVCIS:CSI15:1,2008-05-08T19:00:00Z,28.8332,-90.8320,1006.279,11111222 
WAVCIS,ioos:station:WAVCIS:CSI15:1,2008-05-08T20:00:00Z,28.8332,-90.8320,1005.931,11111222 
WAVCIS,ioos:station:WAVCIS:CSI15:1,2008-05-08T21:00:00Z,28.8332,-90.8320,1005.688,11111222 
WAVCIS,ioos:station:WAVCIS:CSI15:1,2008-05-08T22:00:00Z,28.8332,-90.8320,1005.27,11111222 
WAVCIS,ioos:station:WAVCIS:CSI15:1,2008-05-08T23:00:00Z,28.8332,-90.8320,1005.035,11111222 
WAVCIS,ioos:station:WAVCIS:CSI15:1,2008-05-09T00:00:00Z,28.8332,-90.8320,1004.93,11111222 
WAVCIS,ioos:station:WAVCIS:CSI15:1,2008-05-09T01:00:00Z,28.8332,-90.8320,1005.107,11111222 
WAVCIS,ioos:station:WAVCIS:CSI15:1,2008-05-09T02:00:00Z,28.8332,-90.8320,1005.557,11111222 
WAVCIS,ioos:station:WAVCIS:CSI15:1,2008-05-09T03:00:00Z,28.8332,-90.8320,1006.17,11111222 
WAVCIS,ioos:station:WAVCIS:CSI15:1,2008-05-09T04:00:00Z,28.8332,-90.8320,1006.351,11111222 
WAVCIS,ioos:station:WAVCIS:CSI15:1,2008-05-09T06:00:00Z,28.8332,-90.8320,1005.966,11111222 
WAVCIS,ioos:station:WAVCIS:CSI15:1,2008-05-09T07:00:00Z,28.8332,-90.8320,1005.639,11111222 
WAVCIS,ioos:station:WAVCIS:CSI15:1,2008-05-09T08:00:00Z,28.8332,-90.8320,1005.459,11111222 
WAVCIS,ioos:station:WAVCIS:CSI15:1,2008-05-09T09:00:00Z,28.8332,-90.8320,1005.593,11111222 
WAVCIS,ioos:station:WAVCIS:CSI15:1,2008-05-09T10:00:00Z,28.8332,-90.8320,1006.087,11111222 
WAVCIS,ioos:station:WAVCIS:CSI15:1,2008-05-09T11:00:00Z,28.8332,-90.8320,1006.895,11111222 
WAVCIS,ioos:station:WAVCIS:CSI15:1,2008-05-09T12:00:00Z,28.8332,-90.8320,1007.58,11111222 
WAVCIS,ioos:station:WAVCIS:CSI15:1,2008-05-09T13:00:00Z,28.8332,-90.8320,1008.01,11111222 
WAVCIS,ioos:station:WAVCIS:CSI15:1,2008-05-09T14:00:00Z,28.8332,-90.8320,1008.09,11111222 
WAVCIS,ioos:station:WAVCIS:CSI15:1,2008-05-09T15:00:00Z,28.8332,-90.8320,1008.46,11111222 
WAVCIS,ioos:station:WAVCIS:CSI15:1,2008-05-09T16:00:00Z,28.8332,-90.8320,1008.52,11111222 
WAVCIS,ioos:station:WAVCIS:CSI15:1,2008-05-09T17:00:00Z,28.8332,-90.8320,1008.31,11111222 
WAVCIS,ioos:station:WAVCIS:CSI15:1,2008-05-09T18:00:00Z,28.8332,-90.8320,1007.7,11111222 
WAVCIS,ioos:station:WAVCIS:CSI15:1,2008-05-09T19:00:00Z,28.8332,-90.8320,1007.73,11111222 
WAVCIS,ioos:station:WAVCIS:CSI15:1,2008-05-09T20:00:00Z,28.8332,-90.8320,1007.27,11111222 
WAVCIS,ioos:station:WAVCIS:CSI15:1,2008-05-09T21:00:00Z,28.8332,-90.8320,1006.93,11111222 
WAVCIS,ioos:station:WAVCIS:CSI15:1,2008-05-09T22:00:00Z,28.8332,-90.8320,1006.925,11111222 
WAVCIS,ioos:station:WAVCIS:CSI15:1,2008-05-09T23:00:00Z,28.8332,-90.8320,1006.854,11111222 
WAVCIS,ioos:station:WAVCIS:CSI15:1,2008-05-10T00:00:00Z,28.8332,-90.8320,1007.027,11111222 
WAVCIS,ioos:station:WAVCIS:CSI15:1,2008-05-10T01:00:00Z,28.8332,-90.8320,1007.33,11111222 
WAVCIS,ioos:station:WAVCIS:CSI15:1,2008-05-10T02:00:00Z,28.8332,-90.8320,1007.48,11111222 
WAVCIS,ioos:station:WAVCIS:CSI15:1,2008-05-10T03:00:00Z,28.8332,-90.8320,1007.71,11111222 
WAVCIS,ioos:station:WAVCIS:CSI15:1,2008-05-10T04:00:00Z,28.8332,-90.8320,1008.09,11111222 
WAVCIS,ioos:station:WAVCIS:CSI15:1,2008-05-10T05:00:00Z,28.8332,-90.8320,1008.16,11111222 
WAVCIS,ioos:station:WAVCIS:CSI15:1,2008-05-10T06:00:00Z,28.8332,-90.8320,1007.63,11111222 
WAVCIS,ioos:station:WAVCIS:CSI15:1,2008-05-10T07:00:00Z,28.8332,-90.8320,1007.23,11111222 
WAVCIS,ioos:station:WAVCIS:CSI15:1,2008-05-10T08:00:00Z,28.8332,-90.8320,1006.805,11111222 
WAVCIS,ioos:station:WAVCIS:CSI15:1,2008-05-10T09:00:00Z,28.8332,-90.8320,1006.489,11111222 
WAVCIS,ioos:station:WAVCIS:CSI15:1,2008-05-10T10:00:00Z,28.8332,-90.8320,1007.15,11111222 
WAVCIS,ioos:station:WAVCIS:CSI15:1,2008-05-10T11:00:00Z,28.8332,-90.8320,1006.924,11111222 
WAVCIS,ioos:station:WAVCIS:CSI15:1,2008-05-10T12:00:00Z,28.8332,-90.8320,1007.71,11111222 
WAVCIS,ioos:station:WAVCIS:CSI15:1,2008-05-10T13:00:00Z,28.8332,-90.8320,1007.89,11111222 
WAVCIS,ioos:station:WAVCIS:CSI15:1,2008-05-10T14:00:00Z,28.8332,-90.8320,1008.44,11111222 
WAVCIS,ioos:station:WAVCIS:CSI15:1,2008-05-10T15:00:00Z,28.8332,-90.8320,1008.63,11111222 
WAVCIS,ioos:station:WAVCIS:CSI15:1,2008-05-10T16:00:00Z,28.8332,-90.8320,1008.3,11111222 
WAVCIS,ioos:station:WAVCIS:CSI15:1,2008-05-10T17:00:00Z,28.8332,-90.8320,1007.93,11111222 
WAVCIS,ioos:station:WAVCIS:CSI15:1,2008-05-10T18:00:00Z,28.8332,-90.8320,1007.53,11111222 
WAVCIS,ioos:station:WAVCIS:CSI15:1,2008-05-10T19:00:00Z,28.8332,-90.8320,1007.053,11111222 
WAVCIS,ioos:station:WAVCIS:CSI15:1,2008-05-10T20:00:00Z,28.8332,-90.8320,1006.521,11111222 
WAVCIS,ioos:station:WAVCIS:CSI15:1,2008-05-10T21:00:00Z,28.8332,-90.8320,1005.889,11111222 
WAVCIS,ioos:station:WAVCIS:CSI15:1,2008-05-10T22:00:00Z,28.8332,-90.8320,1005.629,11111222 
WAVCIS,ioos:station:WAVCIS:CSI15:1,2008-05-10T23:00:00Z,28.8332,-90.8320,1005.7,11111222 
WAVCIS,ioos:station:WAVCIS:CSI15:1,2008-05-11T00:00:00Z,28.8332,-90.8320,1005.493,11111222 
WAVCIS,ioos:station:WAVCIS:CSI15:1,2008-05-11T01:00:00Z,28.8332,-90.8320,1005.42,11111222 
WAVCIS,ioos:station:WAVCIS:CSI15:1,2008-05-11T02:00:00Z,28.8332,-90.8320,1005.705,11111222 
WAVCIS,ioos:station:WAVCIS:CSI15:1,2008-05-11T03:00:00Z,28.8332,-90.8320,1005.683,11111222 
WAVCIS,ioos:station:WAVCIS:CSI15:1,2008-05-11T04:00:00Z,28.8332,-90.8320,1005.502,11111222 
WAVCIS,ioos:station:WAVCIS:CSI15:1,2008-05-11T05:00:00Z,28.8332,-90.8320,1005.342,11111222 
WAVCIS,ioos:station:WAVCIS:CSI15:1,2008-05-11T06:00:00Z,28.8332,-90.8320,1005.437,11111222 
WAVCIS,ioos:station:WAVCIS:CSI15:1,2008-05-11T07:00:00Z,28.8332,-90.8320,1005.905,11111222 
WAVCIS,ioos:station:WAVCIS:CSI15:1,2008-05-11T08:00:00Z,28.8332,-90.8320,1005.454,11111222 
WAVCIS,ioos:station:WAVCIS:CSI15:1,2008-05-11T09:00:00Z,28.8332,-90.8320,1006.105,11111222 
WAVCIS,ioos:station:WAVCIS:CSI15:1,2008-05-11T10:00:00Z,28.8332,-90.8320,1006.455,11111222 
WAVCIS,ioos:station:WAVCIS:CSI15:1,2008-05-11T11:00:00Z,28.8332,-90.8320,1007.43,11111222 
WAVCIS,ioos:station:WAVCIS:CSI15:1,2008-05-11T12:00:00Z,28.8332,-90.8320,1008.41,11111222 
WAVCIS,ioos:station:WAVCIS:CSI15:1,2008-05-11T13:00:00Z,28.8332,-90.8320,1009.4,11111222 
WAVCIS,ioos:station:WAVCIS:CSI15:1,2008-05-11T14:00:00Z,28.8332,-90.8320,1008.93,11111222 
WAVCIS,ioos:station:WAVCIS:CSI15:1,2008-05-11T15:00:00Z,28.8332,-90.8320,1008.57,11111222 
WAVCIS,ioos:station:WAVCIS:CSI15:1,2008-05-11T16:00:00Z,28.8332,-90.8320,1008.82,11111222 
WAVCIS,ioos:station:WAVCIS:CSI15:1,2008-05-11T17:00:00Z,28.8332,-90.8320,1009.08,11111222 
WAVCIS,ioos:station:WAVCIS:CSI15:1,2008-05-11T18:00:00Z,28.8332,-90.8320,1008.89,11111222 
WAVCIS,ioos:station:WAVCIS:CSI15:1,2008-05-11T19:00:00Z,28.8332,-90.8320,1008.51,11111222 
WAVCIS,ioos:station:WAVCIS:CSI15:1,2008-05-11T20:00:00Z,28.8332,-90.8320,1008.19,11111222 
WAVCIS,ioos:station:WAVCIS:CSI15:1,2008-05-11T21:00:00Z,28.8332,-90.8320,1007.62,11111222 
WAVCIS,ioos:station:WAVCIS:CSI15:1,2008-05-11T22:00:00Z,28.8332,-90.8320,1007.44,11111222 
WAVCIS,ioos:station:WAVCIS:CSI15:1,2008-05-11T23:00:00Z,28.8332,-90.8320,1007.74,11111222 
WAVCIS,ioos:station:WAVCIS:CSI15:1,2008-05-12T00:00:00Z,28.8332,-90.8320,1007.86,11111222 
WAVCIS,ioos:station:WAVCIS:CSI15:1,2008-05-12T01:00:00Z,28.8332,-90.8320,1008.4,11111222 
WAVCIS,ioos:station:WAVCIS:CSI15:1,2008-05-12T02:00:00Z,28.8332,-90.8320,1009.15,11111222 
WAVCIS,ioos:station:WAVCIS:CSI15:1,2008-05-12T03:00:00Z,28.8332,-90.8320,1009.45,11111222 
WAVCIS,ioos:station:WAVCIS:CSI15:1,2008-05-12T04:00:00Z,28.8332,-90.8320,1009.91,11111222 
WAVCIS,ioos:station:WAVCIS:CSI15:1,2008-05-12T05:00:00Z,28.8332,-90.8320,1010.05,11111222 
WAVCIS,ioos:station:WAVCIS:CSI15:1,2008-05-12T06:00:00Z,28.8332,-90.8320,1009.94,11111222 
WAVCIS,ioos:station:WAVCIS:CSI15:1,2008-05-12T07:00:00Z,28.8332,-90.8320,1009.73,11111222 